Location: Bord�res
(43.2000°N, 0.2167°W)
Time: 14:40:12
(UTC+00:00)

SL-8 Rocket - Pass Details

Date: 03 March 2021
Orbit: 957 x 990 km, 82.9° (Epoch: 21 April)

Event Time Altitude Azimuth Distance (km) Brightness Sun altitude
Rises 19:49:28 0° 190° (S) 3,669 7.0 -22.0°
Reaches altitude 10° 19:51:59 10° 191° (S) 2,721 6.3 -22.4°
Maximum altitude 19:58:13 78° 277° (W) 996 4.1 -23.5°
Drops below altitude 10° 20:04:28 10° 5° (N) 2,716 6.4 -24.6°
Sets 20:06:58 0° 7° (N) 3,662 7.1 -25.1°
